PROFILE

 METAR AND TAF INFORMATION
ADDS - METARS form results

(1437 UTC 25 September 2022)
http://aviationweather.gov/metar/data/
 
LFBD 251430Z AUTO 30007KT 270V350 CAVOK 20/08 Q1015 NOSIG
LFBD 251400Z AUTO 31004KT 260V340 CAVOK 21/07 Q1015 NOSIG
TAF LFBD 251100Z 2512/2618 VRB02KT CAVOK TX22/2514Z TN09/2605Z PROB40 TEMPO 2512/2517 BKN040 PROB40 TEMPO 2602/2608 3000 BR NSC PROB30 TEMPO 2602/2607 0800 FG VV/// BECMG 2608/2610 BKN025 

 AIRPORT MAP

 RUNWAY INFORMATION
Runway 05 Runway length 10171 ft Runway width 148 ft
Runway elevation 160 ft Runway displaced threshold 0 ft Runway heading 46
Runway 23 Runway length 10171 ft Runway width 148 ft
Runway elevation 151 ft Runway displaced threshold 0 ft Runway heading 226
Runway 11 Runway length 7923 ft Runway width 148 ft
Runway elevation 153 ft Runway displaced threshold 0 ft Runway heading 107
Runway 29 Runway length 7923 ft Runway width 148 ft
Runway elevation 160 ft Runway displaced threshold 0 ft Runway heading 287

 AIRPORT FREQUENCIES
Type APP Name AQUITAINE Frequency 118.6 MHZ
Type ARR Name APP Frequency 121.2 MHZ
Type ATIS Name ATIS Frequency 131.15 MHZ
Type GND Name GND Frequency 121.9 MHZ
Type INFO Name AQUITAINE Frequency 120.575 MHZ
Type OPS Name OPNS Frequency 143.175 MHZ
Type TWR Name TWR Frequency 118.3 MHZ

 AIRPORT NEAR NAVIGATION AIDS
Type NDB Name Bordeaux Frequency 393 KHZ
Type TACAN Name Bordeaux Frequency 114400 KHZ
Type NDB Name Bordeaux Frequency 318 KHZ
Type VOR-DME Name Bordeaux Frequency 113750 KHZ
Type NDB Name Bordeaux Frequency 361 KHZ